Home > Weather > Tampa > Past weeks

Flag for USA Past Weather in Tampa, Florida, USA — Yesterday and Last 2 Weeks

Now
91 °F

Sunny.


Feels Like: 96 °F
Forecast: 74 / 90 °F
Wind: 7 mph from Northwest

Location: Tampa, Peter O Knight Airport

Current Time: May 30, 2016 at 6:30:23 PM

Latest Report: May 30, 2016 at 5:55 PM


Visibility: 10 mi

Pressure: 29.93 "Hg

Humidity: 46%

Dew Point: 68 °F

Location of TampaLocation

Past Weather in Tampa — Graph

°F

Tampa Temperature Yesterday

Maximum temperature yesterday: 91 °F (at 1:15 PM)
Minimum temperature yesterday: 75 °F (at 5:15 AM)
Average temperature yesterday: 83 °F

High & Low Weather Summary for the Past Weeks

 TemperatureHumidityPressure
High95 °F (May 30, 3:55 PM)100% (May 18, 3:15 AM)30.21 "Hg (May 18, 3:15 AM)
Low70 °F (May 26, 4:15 AM)26% (May 24, 2:35 PM)29.89 "Hg (May 22, 6:15 PM)
Average82 °F69%30.03 "Hg
* Reported May 15 5:15 PM — May 30 5:15 PM, Tampa, Weather by CustomWeather, © 2016

Note: Actual official high and low records may vary slightly from our data, if they occured in-between our weather recording intervals... More about our weather records

Advertising

Tampa Weather History for the Previous 24 Hours

Scroll right to see more
 ConditionsComfort  
Time TempWeatherWind HumidityBarometerVisibility
5:15 PM
Mon, May 30
91 °FSunny.8 mph46%29.91 "Hg10 mi
4:55 PM90 °FSunny.6 mph52%29.92 "Hg10 mi
4:35 PM93 °FSunny.6 mph44%29.93 "Hg10 mi
4:15 PM91 °FSunny.6 mph46%29.94 "Hg10 mi
3:55 PM95 °FSunny.7 mph41%29.95 "Hg10 mi
3:35 PM91 °FSunny.7 mph46%29.95 "Hg10 mi
3:15 PM93 °FSunny.7 mph44%29.96 "Hg10 mi
2:55 PM91 °FSunny.6 mph46%29.96 "Hg10 mi
2:15 PM91 °FSunny.3 mph46%29.97 "Hg10 mi
1:55 PM88 °FSunny.7 mph55%29.98 "Hg10 mi
1:35 PM90 °FScattered clouds.No wind55%29.99 "Hg10 mi
1:15 PM91 °FScattered clouds.7 mph49%30.00 "Hg10 mi
12:55 PM91 °FSunny.7 mph46%30.00 "Hg10 mi
12:35 PM88 °FSunny.7 mph52%30.01 "Hg10 mi
12:15 PM91 °FSunny.8 mph49%30.01 "Hg10 mi
11:55 AM90 °FSunny.3 mph52%30.02 "Hg10 mi
11:15 AM90 °FSunny.5 mph55%30.02 "Hg10 mi
10:55 AM90 °FSunny.5 mph55%30.02 "Hg10 mi
10:35 AM88 °FSunny.5 mph59%30.03 "Hg10 mi
10:15 AM88 °FSunny.3 mph59%30.03 "Hg10 mi
9:55 AM86 °FSunny.5 mph62%30.03 "Hg10 mi
9:35 AM86 °FSunny.6 mph66%30.03 "Hg10 mi
9:15 AM84 °FSunny.5 mph70%30.03 "Hg10 mi
8:55 AM82 °FSunny.3 mph74%30.03 "Hg10 mi
8:35 AM82 °FSunny.3 mph70%30.02 "Hg10 mi
8:15 AM81 °FSunny.3 mph74%30.03 "Hg10 mi
7:55 AM81 °FSunny.No wind74%30.02 "Hg10 mi
7:15 AM77 °FClear.No wind89%30.01 "Hg10 mi
6:55 AM77 °FClear.No wind89%30.01 "Hg10 mi
6:35 AM75 °FClear.No wind94%30.01 "Hg10 mi
6:15 AM75 °FClear.No wind94%30.00 "Hg10 mi
5:55 AM75 °FClear.No wind89%30.00 "Hg10 mi
5:15 AM77 °FClear.No wind83%30.00 "Hg10 mi
4:55 AM77 °FClear.No wind83%30.00 "Hg10 mi
4:35 AM77 °FClear.No wind83%30.00 "Hg10 mi
4:15 AM75 °FPassing clouds.No wind89%30.01 "Hg10 mi
3:55 AM77 °FClear.No wind83%30.01 "Hg10 mi
3:15 AM77 °FClear.No wind83%30.00 "Hg10 mi
2:55 AM77 °FClear.No wind83%30.01 "Hg10 mi
2:15 AM79 °FClear.No wind74%30.01 "Hg10 mi
1:55 AM79 °FClear.No wind74%30.02 "Hg10 mi
1:15 AM79 °FClear.7 mph79%30.04 "Hg10 mi
12:55 AM79 °FPassing clouds.8 mph74%30.04 "Hg10 mi
12:35 AM79 °FPassing clouds.8 mph79%30.04 "Hg10 mi
12:15 AM79 °FPassing clouds.8 mph79%30.06 "Hg10 mi
11:55 PM
Sun, May 29
79 °FClear.8 mph79%30.06 "Hg10 mi
11:15 PM79 °FPassing clouds.13 mph79%30.05 "Hg10 mi
10:55 PM79 °FPassing clouds.10 mph79%30.06 "Hg10 mi
10:35 PM81 °FClear.10 mph74%30.06 "Hg10 mi
10:15 PM82 °FClear.6 mph70%30.04 "Hg10 mi
9:55 PM82 °FClear.No wind74%30.04 "Hg10 mi
9:35 PM84 °FPassing clouds.3 mph70%30.04 "Hg10 mi
9:15 PM84 °FScattered clouds.3 mph74%30.04 "Hg10 mi
8:55 PM84 °FSunny.3 mph74%30.03 "Hg10 mi
8:35 PM86 °FSunny.5 mph70%30.02 "Hg10 mi
8:15 PM86 °FSunny.6 mph70%30.01 "Hg10 mi
7:55 PM86 °FSunny.5 mph70%30.01 "Hg10 mi
7:35 PM88 °FSunny.6 mph62%30.01 "Hg10 mi
7:15 PM88 °FSunny.6 mph62%30.01 "Hg10 mi
6:55 PM88 °FSunny.7 mph62%30.00 "Hg10 mi
6:15 PM90 °FSunny.7 mph59%30.00 "Hg10 mi
Weather by CustomWeather, © 2016

See weather overviewHow to use our weather pages